Location: Phoenix
(33.4480°N, 112.0730°W)
Time: 16:09:10
(UTC-07:00)

Cosmos 1470 Rocket - Visible Passes

Search period start: 02 July 2015 00:00
Search period end: 12 July 2015 00:00
Orbit: 604 x 635 km, 82.5° (Epoch: 02 July)

Date Brightness Start Highest point End Pass type
(mag) Time Alt. Az. Time Alt. Az. Time Alt. Az.
02 Jul 6.2 21:34:31 10° WSW 21:37:49 19° WNW 21:40:58 10° NNW visible
03 Jul 3.7 20:12:59 10° S 20:17:20 56° E 20:21:41 10° NNE visible
04 Jul 3.9 20:30:25 10° SSW 20:34:51 71° W 20:39:17 10° N visible
05 Jul 5.3 20:48:23 10° SW 20:52:28 34° W 20:56:30 10° NNW visible
06 Jul 6.4 21:07:07 10° WSW 21:10:14 18° WNW 21:13:10 10° NNW visible
08 Jul 4.1 20:02:50 10° SSW 20:07:14 65° W 20:11:37 10° N visible
09 Jul 5.6 20:20:52 10° SW 20:24:52 31° WNW 20:28:47 10° NNW visible
10 Jul 6.6 20:39:42 10° WSW 20:42:37 16° WNW 20:45:21 10° NW visible
